Home   Weather   Völklingen   Past weeks

Flag for Germany Past Weather in Völklingen, Saarland, Germany — Yesterday and Last 2 Weeks

Now
25 °F

Ice fog.


Feels Like: 18 °F
Forecast: 19 / 28 °F
Wind: 6 mph from East

Location: Saarbruecken / Ensheim

Current Time: Jan 24, 2017 at 8:21:35 am

Latest Report: Jan 24, 2017 at 7:50 am


Visibility: 2 mi

Pressure: 30.27 "Hg

Humidity: 93%

Dew Point: 23 °F

Location of VölklingenLocation

Past Weather in Völklingen — Graph

°F

Völklingen Temperature Yesterday

Maximum temperature yesterday: 34 °F (at 3:20 pm)
Minimum temperature yesterday: 14 °F (at 5:20 am)
Average temperature yesterday: 22 °F

High & Low Weather Summary for the Past Weeks

 TemperatureHumidityPressure
High41 °F (Jan 11, 8:50 pm)100% (Jan 9, 9:20 am)30.54 "Hg (Jan 9, 9:20 am)
Low14 °F (Jan 23, 5:20 am)41% (Jan 20, 2:50 pm)29.27 "Hg (Jan 12, 10:50 pm)
Average29 °F81%30.15 "Hg
* Reported Jan 9 6:20 am — Jan 24 6:50 am, Völklingen, Weather by CustomWeather, © 2017

Note: Actual official high and low records may vary slightly from our data, if they occured in-between our weather recording intervals... More about our weather records

Advertising

Völklingen Weather History for the Previous 24 Hours

Scroll right to see more
 ConditionsComfort  
Time TempWeatherWind HumidityBarometerVisibility
6:50 am
Tue, Jan 24
25 °FIce fog.5 mph93%30.27 "Hg2 mi
6:20 am25 °FIce fog.3 mph93%30.27 "Hg2 mi
5:50 am25 °FIce fog.2 mph93%30.27 "Hg2 mi
5:20 am25 °FIce fog.3 mph93%30.27 "Hg2 mi
4:50 am25 °FIce fog.5 mph93%30.24 "Hg2 mi
4:20 am25 °FIce fog.6 mph93%30.24 "Hg2 mi
3:50 am25 °FIce fog.5 mph93%30.24 "Hg2 mi
3:20 am25 °FLow clouds.7 mph93%30.24 "Hg2 mi
2:50 am25 °FLow clouds.5 mph93%30.27 "Hg2 mi
2:20 am25 °FLow clouds.3 mph93%30.27 "Hg2 mi
1:50 am25 °FLow clouds.7 mph93%30.24 "Hg2 mi
1:20 am25 °FLow clouds.5 mph93%30.24 "Hg3 mi
12:50 am25 °FLow clouds.6 mph93%30.24 "Hg2 mi
12:20 am25 °FLow clouds.7 mph93%30.24 "Hg2 mi
11:50 pm
Mon, Jan 23
25 °FLow clouds.7 mph93%30.27 "Hg2 mi
11:20 pm23 °FLow clouds.9 mph100%30.24 "Hg2 mi
10:50 pm23 °FIce fog.9 mph93%30.24 "Hg2 mi
10:20 pm21 °FPassing clouds.5 mph93%30.24 "Hg4 mi
9:50 pm21 °FClear.3 mph86%30.24 "Hg4 mi
9:20 pm21 °FClear.5 mph93%30.24 "Hg5 mi
8:50 pm23 °FClear.6 mph86%30.24 "Hg6 mi
8:20 pm25 °FClear.3 mph80%30.24 "Hg6 mi
7:50 pm23 °FClear.2 mph86%30.24 "Hg6 mi
7:20 pm23 °FClear.No wind86%30.24 "Hg6 mi
6:50 pm25 °FClear.3 mph80%30.24 "Hg6 mi
6:20 pm25 °FClear.2 mph80%30.24 "Hg5 mi
5:50 pm27 °FClear.2 mph74%30.24 "Hg6 mi
5:20 pm28 °FClear.2 mph74%30.24 "Hg6 mi
4:50 pm30 °FClear.2 mph69%30.24 "Hg6 mi
4:20 pm32 °FPassing clouds.3 mph64%30.24 "HgN/A
3:50 pm32 °FSunny.2 mph64%30.24 "Hg10 mi
3:20 pm34 °FSunny.3 mph60%30.24 "Hg10 mi
2:50 pm32 °FPassing clouds.5 mph64%30.24 "HgN/A
2:20 pm32 °FClear.3 mph64%30.24 "Hg5 mi
1:50 pm30 °FClear.6 mph69%30.24 "Hg4 mi
1:20 pm28 °FClear.8 mph69%30.24 "Hg4 mi
12:50 pm28 °FClear.8 mph74%30.24 "Hg4 mi
12:20 pm27 °FClear.7 mph74%30.24 "Hg4 mi
11:50 am27 °FClear.7 mph80%30.24 "Hg4 mi
11:20 am27 °FHaze.8 mph80%30.27 "Hg3 mi
10:50 am25 °FIce fog.5 mph80%30.27 "Hg3 mi
10:20 am25 °FIce fog.2 mph80%30.27 "Hg3 mi
9:50 am21 °FIce fog.1 mph86%30.24 "Hg3 mi
9:20 am18 °FIce fog.1 mph86%30.24 "Hg3 mi
8:50 am16 °FIce fog.3 mph93%30.24 "Hg3 mi
8:20 am14 °FIce fog.3 mph92%30.24 "Hg3 mi
Weather by CustomWeather, © 2017

See weather overviewHow to use our weather pages